Regional Weather Roundup
Issued by NWS Binghamton, NY

Home | Current Version | Previous Version | Text Only | Print | Product List | Glossary On
Versions: 1 2 3 4 5 6 7 8 9 10 11 12 13 14 15 16 17 18 19 20 21 22 23 24 25 26 27 28 29 30 31 32 33 34 35 36 37 38 39 40 41 42 43 44 45 46 47 48 49 50
000
ASUS41 KBGM 050110
RWRBGM
RWRBGM
BINGHAMTON REGIONAL WEATHER ROUNDUP
NATIONAL WEATHER SERVICE BINGHAMTON NY
800 PM EST WED MAR 04 2015

Note: "fair" indicates few or no clouds below 12,000 feet with no
significant weather and/or obstructions to visibility.

* = Station(s) that does not report precipitation, such as rain,
snow, etc, also no thunder or fog.

!NYZ009-015>018-022>025-036-037-044>046-055>057-062-050200
...CENTRAL NEW YORK...

CITY           SKY/WX    TMP DP  RH WIND       PRES   REMARKS
BINGHAMTON     CLOUDY    31  24  75 NW10      29.84R WCI  22
CORTLAND       CLOUDY    32  25  74 W8        29.88F WCI  25
DANSVILLE      CLOUDY    32  21  64 NW3       29.92F
ELMIRA         CLOUDY    35  25  66 NW7       29.89R WCI  29
ITHACA         CLOUDY    31  22  69 N9        29.90S WCI  23
MONTICELLO     CLOUDY    36  34  93 W7        29.85R WCI  30
NORWICH        CLOUDY    32  25  74 N3        29.87F
ONEONTA        PTCLDY    30  23  74 NW7       29.82F WCI  23
PENN YAN       CLOUDY    32  20  61 W10       29.90F WCI  24
ROME           CLOUDY    29  21  72 W6        29.91S WCI  23
SIDNEY         CLOUDY    34  27  75 CALM      29.86F
SYRACUSE       CLOUDY    26  24  92 NW8       29.92R WCI  18
$$

!PAZ038>040-043-044-047-048-072-050200
...NORTHEAST PENNSYLVANIA...

CITY           SKY/WX    TMP DP  RH WIND       PRES   REMARKS
HAZLETON       CLOUDY    36  34  93 W5        29.89R WCI  32
SCRANTON       CLOUDY    38  32  79 SW6       29.87R WCI  33
TOWANDA*       CLEAR     39  28  65 SW6       29.90R WCI  35
$$
&&
KEY
WCI = WIND CHILL INDEX
VSB = VISIBILITY
HX  = HEAT INDEX
$$



USA.gov is the U.S. government's official web portal to all federal, state and local government web resources and services.